| time (UTC) | temp F | wind direction | speed MPH | gust MPH | rain 1hr in | rain 24hr in | rain mn in | humidity % | barometer mb |
| 20260504211022 | 74 | 258 | 7.0 | 11.0 | 0.00 | 0.00 | 0.00 | 56 | 1011.3 |
| 20260504210525 | 74 | 222 | 6.0 | 10.0 | 0.00 | 0.00 | 0.00 | 59 | 1011.3 |
| 20260504210038 | 74 | 244 | 6.0 | 10.0 | 0.00 | 0.00 | 0.00 | 59 | 1011.5 |
| 20260504205522 | 74 | 275 | 6.0 | 12.0 | 0.00 | 0.00 | 0.00 | 59 | 1011.4 |
| 20260504205025 | 74 | 198 | 6.0 | 12.0 | 0.00 | 0.00 | 0.00 | 58 | 1011.6 |
| 20260504204542 | 74 | 252 | 7.0 | 12.0 | 0.00 | 0.00 | 0.00 | 59 | 1011.6 |
| 20260504204025 | 74 | 250 | 4.0 | 12.0 | 0.00 | 0.00 | 0.00 | 60 | 1011.6 |
| 20260504203528 | 73 | 255 | 6.0 | 14.0 | 0.00 | 0.00 | 0.00 | 64 | 1011.5 |
| 20260504203049 | 73 | 203 | 7.0 | 15.0 | 0.00 | 0.00 | 0.00 | 62 | 1011.6 |
| 20260504202525 | 73 | 210 | 7.0 | 15.0 | 0.00 | 0.00 | 0.00 | 63 | 1011.6 |
| 20260504202024 | 72 | 172 | 8.0 | 19.0 | 0.00 | 0.00 | 0.00 | 66 | 1011.7 |
| 20260504201541 | 72 | 244 | 8.0 | 19.0 | 0.00 | 0.00 | 0.00 | 65 | 1011.8 |
| 20260504201025 | 72 | 190 | 10.0 | 15.0 | 0.00 | 0.00 | 0.00 | 66 | 1011.8 |
| 20260504200525 | 72 | 205 | 9.0 | 13.0 | 0.00 | 0.00 | 0.00 | 68 | 1011.7 |
| 20260504200042 | 71 | 192 | 9.0 | 13.0 | 0.00 | 0.00 | 0.00 | 66 | 1011.7 |
| 20260504195522 | 71 | 219 | 6.0 | 14.0 | 0.00 | 0.00 | 0.00 | 69 | 1011.8 |
| 20260504195022 | 71 | 169 | 8.0 | 14.0 | 0.00 | 0.00 | 0.00 | 68 | 1011.8 |
| 20260504194544 | 71 | 199 | 8.0 | 14.0 | 0.00 | 0.00 | 0.00 | 66 | 1011.8 |
| 20260504194023 | 71 | 183 | 8.0 | 13.0 | 0.00 | 0.00 | 0.00 | 67 | 1011.8 |
| 20260504193524 | 71 | 217 | 6.0 | 13.0 | 0.00 | 0.00 | 0.00 | 70 | 1011.7 |
| 20260504193039 | 70 | 173 | 6.0 | 13.0 | 0.00 | 0.00 | 0.00 | 69 | 1011.8 |
| 20260504192522 | 70 | 211 | 8.0 | 13.0 | 0.00 | 0.00 | 0.00 | 68 | 1011.9 |
| 20260504192026 | 70 | 217 | 6.0 | 12.0 | 0.00 | 0.00 | 0.00 | 69 | 1012.0 |
| 20260504191543 | 69 | 179 | 7.0 | 14.0 | 0.00 | 0.00 | 0.00 | 69 | 1012.1 |
| 20260504191025 | 69 | 162 | 9.0 | 14.0 | 0.00 | 0.00 | 0.00 | 70 | 1012.2 |
| 20260504190523 | 69 | 178 | 7.0 | 15.0 | 0.00 | 0.00 | 0.00 | 71 | 1012.2 |
| 20260504190043 | 68 | 134 | 9.0 | 15.0 | 0.00 | 0.00 | 0.00 | 69 | 1012.2 |
| 20260504185522 | 68 | 134 | 10.0 | 15.0 | 0.00 | 0.00 | 0.00 | 71 | 1012.3 |
| 20260504185025 | 68 | 156 | 10.0 | 14.0 | 0.00 | 0.00 | 0.00 | 71 | 1012.3 |
| 20260504184542 | 68 | 155 | 6.0 | 16.0 | 0.00 | 0.00 | 0.00 | 73 | 1012.2 |
| 20260504184025 | 68 | 198 | 7.0 | 16.0 | 0.00 | 0.00 | 0.00 | 72 | 1012.3 |
| 20260504183523 | 67 | 150 | 8.0 | 15.0 | 0.00 | 0.00 | 0.00 | 73 | 1012.4 |
| 20260504183042 | 67 | 146 | 9.0 | 15.0 | 0.00 | 0.00 | 0.00 | 75 | 1012.3 |
| 20260504182523 | 67 | 196 | 6.0 | 15.0 | 0.00 | 0.00 | 0.00 | 73 | 1012.3 |
| 20260504182022 | 66 | 145 | 8.0 | 13.0 | 0.00 | 0.00 | 0.00 | 74 | 1012.4 |
| 20260504181543 | 66 | 148 | 8.0 | 14.0 | 0.00 | 0.00 | 0.00 | 74 | 1012.3 |
| 20260504181024 | 66 | 216 | 8.0 | 14.0 | 0.00 | 0.00 | 0.00 | 74 | 1012.4 |
| 20260504180522 | 65 | 164 | 9.0 | 15.0 | 0.00 | 0.00 | 0.00 | 75 | 1012.4 |
| 20260504180047 | 65 | 187 | 6.0 | 15.0 | 0.00 | 0.00 | 0.00 | 77 | 1012.4 |
| 20260504175523 | 65 | 159 | 9.0 | 14.0 | 0.00 | 0.00 | 0.00 | 76 | 1012.3 |
| 20260504175024 | 64 | 135 | 8.0 | 12.0 | 0.00 | 0.00 | 0.00 | 77 | 1012.4 |
| 20260504174536 | 64 | 215 | 9.0 | 12.0 | 0.00 | 0.00 | 0.00 | 78 | 1012.3 |
| 20260504174025 | 64 | 145 | 8.0 | 12.0 | 0.00 | 0.00 | 0.00 | 77 | 1012.3 |
| 20260504173522 | 64 | 151 | 7.0 | 14.0 | 0.00 | 0.00 | 0.00 | 78 | 1012.3 |
| 20260504173042 | 63 | 211 | 7.0 | 14.0 | 0.00 | 0.00 | 0.00 | 78 | 1012.3 |
| 20260504172522 | 63 | 147 | 8.0 | 14.0 | 0.00 | 0.00 | 0.00 | 78 | 1012.4 |
| 20260504172022 | 63 | 122 | 10.0 | 14.0 | 0.00 | 0.00 | 0.00 | 78 | 1012.3 |
| 20260504171544 | 63 | 158 | 9.0 | 13.0 | 0.00 | 0.00 | 0.00 | 78 | 1012.3 |
| 20260504171025 | 63 | 151 | 7.0 | 11.0 | 0.00 | 0.00 | 0.00 | 79 | 1012.3 |
| 20260504170522 | 63 | 137 | 8.0 | 11.0 | 0.00 | 0.00 | 0.00 | 79 | 1012.3 |
| 20260504151022 | 56 | 174 | 2.0 | 4.0 | 0.00 | 0.00 | 0.00 | 96 | 1011.6 |
| 20260504150522 | 55 | 192 | 2.0 | 4.0 | 0.00 | 0.00 | 0.00 | 96 | 1011.5 |
| 20260504141024 | 47 | 0 | 0.0 | 0.0 | 0.00 | 0.00 | 0.00 | 98 | 1011.2 |
| 20260504140521 | 45 | 0 | 0.0 | 0.0 | 0.00 | 0.00 | 0.00 | 98 | 1011.1 |
| 20260504130522 | 43 | 0 | 0.0 | 0.0 | 0.00 | 0.00 | 0.00 | 97 | 1010.6 |
| 20260504110527 | 46 | 0 | 0.0 | 0.0 | 0.00 | 0.00 | 0.00 | 96 | 1010.1 |
| 20260504100526 | 47 | 0 | 0.0 | 0.0 | 0.00 | 0.00 | 0.00 | 95 | 1009.8 |
| 20260504081542 | 52 | 0 | 0.0 | 1.0 | 0.00 | 0.00 | 0.00 | 94 | 1009.8 |
| 20260504081029 | 52 | 0 | 0.0 | 1.0 | 0.00 | 0.00 | 0.00 | 94 | 1009.7 |
| 20260504080526 | 52 | 0 | 0.0 | 1.0 | 0.00 | 0.00 | 0.00 | 94 | 1009.7 |
| 20260504050529 | 60 | 19 | 0.0 | 1.0 | 0.00 | 0.00 | 0.00 | 82 | 1009.7 |
| 20260504045525 | 60 | 0 | 0.0 | 0.0 | 0.00 | 0.00 | 0.00 | 81 | 1009.8 |
| 20260504045025 | 61 | 0 | 0.0 | 1.0 | 0.00 | 0.00 | 0.00 | 80 | 1009.9 |
| 20260504044539 | 61 | 0 | 0.0 | 1.0 | 0.00 | 0.00 | 0.00 | 79 | 1009.7 |
| 20260504044025 | 62 | 0 | 0.0 | 1.0 | 0.00 | 0.00 | 0.00 | 79 | 1009.8 |
| 20260504043526 | 62 | 0 | 0.0 | 1.0 | 0.00 | 0.00 | 0.00 | 78 | 1009.6 |
| 20260504043039 | 63 | 0 | 0.0 | 1.0 | 0.00 | 0.00 | 0.00 | 78 | 1009.6 |
| 20260504042525 | 63 | 0 | 0.0 | 1.0 | 0.00 | 0.00 | 0.00 | 76 | 1009.6 |
| 20260504042025 | 63 | 22 | 0.0 | 1.0 | 0.00 | 0.00 | 0.00 | 76 | 1009.4 |
| 20260504041542 | 64 | 0 | 0.0 | 1.0 | 0.00 | 0.00 | 0.00 | 74 | 1009.5 |
| 20260504041027 | 65 | 0 | 0.0 | 2.0 | 0.00 | 0.00 | 0.00 | 73 | 1009.4 |
| 20260504040526 | 65 | 21 | 0.0 | 2.0 | 0.00 | 0.00 | 0.00 | 71 | 1009.4 |
| 20260504040100 | 66 | 18 | 0.0 | 1.0 | 0.00 | 0.00 | 0.00 | 71 | 1009.3 |
| 20260504035526 | 66 | 18 | 0.0 | 2.0 | 0.00 | 0.00 | 0.00 | 70 | 1009.1 |
| 20260504035025 | 67 | 18 | 0.0 | 2.0 | 0.00 | 0.00 | 0.00 | 68 | 1009.0 |
| 20260504034541 | 69 | 25 | 0.0 | 1.0 | 0.00 | 0.00 | 0.00 | 65 | 1008.9 |
| 20260504034025 | 69 | 34 | 0.0 | 1.0 | 0.00 | 0.00 | 0.00 | 63 | 1009.0 |
| 20260504033525 | 70 | 34 | 0.0 | 1.0 | 0.00 | 0.00 | 0.00 | 62 | 1008.9 |
| 20260504033040 | 71 | 34 | 0.0 | 2.0 | 0.00 | 0.00 | 0.00 | 61 | 1008.9 |
| 20260504032528 | 72 | 39 | 0.0 | 2.0 | 0.00 | 0.00 | 0.00 | 58 | 1008.8 |
| 20260504032042 | 73 | 33 | 0.0 | 1.0 | 0.00 | 0.00 | 0.00 | 57 | 1008.7 |
| 20260504031540 | 74 | 33 | 0.0 | 1.0 | 0.00 | 0.00 | 0.00 | 55 | 1008.8 |
| 20260504031027 | 75 | 0 | 0.0 | 1.0 | 0.00 | 0.00 | 0.00 | 54 | 1008.8 |
| 20260504030528 | 77 | 33 | 0.0 | 2.0 | 0.00 | 0.00 | 0.00 | 50 | 1008.7 |
| 20260504030038 | 78 | 0 | 0.0 | 4.0 | 0.00 | 0.00 | 0.00 | 49 | 1008.7 |
| 20260504025526 | 79 | 33 | 1.0 | 4.0 | 0.00 | 0.00 | 0.00 | 46 | 1008.7 |
| 20260504025026 | 80 | 337 | 1.0 | 4.0 | 0.00 | 0.00 | 0.00 | 45 | 1008.6 |
| 20260504024542 | 81 | 18 | 1.0 | 6.0 | 0.00 | 0.00 | 0.00 | 43 | 1008.6 |
| 20260504024030 | 81 | 20 | 2.0 | 7.0 | 0.00 | 0.00 | 0.00 | 41 | 1008.6 |
| 20260504023526 | 81 | 24 | 3.0 | 8.0 | 0.00 | 0.00 | 0.00 | 41 | 1008.6 |
| 20260504023045 | 82 | 355 | 4.0 | 10.0 | 0.00 | 0.00 | 0.00 | 40 | 1008.5 |
| 20260504022527 | 82 | 348 | 5.0 | 10.0 | 0.00 | 0.00 | 0.00 | 40 | 1008.6 |
| 20260504022025 | 83 | 40 | 3.0 | 9.0 | 0.00 | 0.00 | 0.00 | 39 | 1008.6 |
| 20260504021541 | 83 | 10 | 2.0 | 8.0 | 0.00 | 0.00 | 0.00 | 40 | 1008.5 |
| 20260504021025 | 83 | 31 | 2.0 | 6.0 | 0.00 | 0.00 | 0.00 | 38 | 1008.6 |
| 20260504020525 | 84 | 19 | 2.0 | 6.0 | 0.00 | 0.00 | 0.00 | 39 | 1008.6 |
| 20260504020040 | 84 | 336 | 2.0 | 11.0 | 0.00 | 0.00 | 0.00 | 39 | 1008.6 |
| 20260504015525 | 84 | 35 | 3.0 | 11.0 | 0.00 | 0.00 | 0.00 | 39 | 1008.5 |
| 20260504015025 | 84 | 28 | 5.0 | 12.0 | 0.00 | 0.00 | 0.00 | 37 | 1008.6 |
| 20260504014542 | 84 | 5 | 3.0 | 12.0 | 0.00 | 0.00 | 0.00 | 39 | 1008.7 |
| 20260504014025 | 84 | 18 | 5.0 | 10.0 | 0.00 | 0.00 | 0.00 | 37 | 1008.6 |
| 20260504013526 | 84 | 24 | 5.0 | 9.0 | 0.00 | 0.00 | 0.00 | 37 | 1008.6 |
| 20260504013042 | 85 | 14 | 4.0 | 11.0 | 0.00 | 0.00 | 0.00 | 36 | 1008.6 |
| 20260504012529 | 85 | 327 | 4.0 | 11.0 | 0.00 | 0.00 | 0.00 | 35 | 1008.6 |
| 20260504012026 | 85 | 51 | 6.0 | 11.0 | 0.00 | 0.00 | 0.00 | 36 | 1008.6 |
| 20260504011542 | 86 | 19 | 4.0 | 9.0 | 0.00 | 0.00 | 0.00 | 36 | 1008.6 |
| 20260504011025 | 86 | 71 | 1.0 | 6.0 | 0.00 | 0.00 | 0.00 | 36 | 1008.8 |
| 20260504010525 | 86 | 122 | 2.0 | 7.0 | 0.00 | 0.00 | 0.00 | 36 | 1008.8 |
| 20260504010049 | 85 | 127 | 3.0 | 10.0 | 0.00 | 0.00 | 0.00 | 38 | 1008.9 |
| 20260504005526 | 85 | 352 | 5.0 | 10.0 | 0.00 | 0.00 | 0.00 | 37 | 1008.9 |
| 20260504005024 | 86 | 10 | 2.0 | 9.0 | 0.00 | 0.00 | 0.00 | 36 | 1009.0 |
| 20260504004545 | 85 | 296 | 2.0 | 9.0 | 0.00 | 0.00 | 0.00 | 34 | 1009.0 |
| 20260504004025 | 85 | 9 | 4.0 | 9.0 | 0.00 | 0.00 | 0.00 | 36 | 1009.1 |
| 20260504003529 | 85 | 337 | 3.0 | 8.0 | 0.00 | 0.00 | 0.00 | 37 | 1009.0 |
| 20260504003040 | 85 | 338 | 2.0 | 10.0 | 0.00 | 0.00 | 0.00 | 40 | 1009.2 |
| 20260504002525 | 85 | 5 | 5.0 | 11.0 | 0.00 | 0.00 | 0.00 | 35 | 1009.3 |
| 20260504002026 | 85 | 35 | 4.0 | 11.0 | 0.00 | 0.00 | 0.00 | 37 | 1009.4 |
| 20260504001555 | 85 | 351 | 5.0 | 10.0 | 0.00 | 0.00 | 0.00 | 34 | 1009.4 |
| 20260504001025 | 86 | 350 | 3.0 | 9.0 | 0.00 | 0.00 | 0.00 | 37 | 1009.5 |
| 20260504000524 | 86 | 89 | 2.0 | 11.0 | 0.00 | 0.00 | 0.00 | 34 | 1009.5 |
| 20260504000042 | 86 | 325 | 3.0 | 11.0 | 0.00 | 0.00 | 0.00 | 36 | 1009.6 |
| 20260503235525 | 86 | 324 | 1.0 | 9.0 | 0.00 | 0.00 | 0.00 | 41 | 1009.5 |
| 20260503235027 | 85 | 342 | 3.0 | 9.0 | 0.00 | 0.00 | 0.00 | 37 | 1009.6 |
| 20260503234543 | 85 | 312 | 2.0 | 12.0 | 0.00 | 0.00 | 0.00 | 38 | 1009.5 |
| 20260503234025 | 85 | 96 | 4.0 | 12.0 | 0.00 | 0.00 | 0.00 | 40 | 1009.5 |
| 20260503233525 | 85 | 22 | 7.0 | 12.0 | 0.00 | 0.00 | 0.00 | 39 | 1009.6 |
| 20260503233043 | 85 | 349 | 1.0 | 10.0 | 0.00 | 0.00 | 0.00 | 39 | 1009.7 |
| 20260503232528 | 85 | 37 | 4.0 | 10.0 | 0.00 | 0.00 | 0.00 | 37 | 1009.8 |
| 20260503232025 | 85 | 342 | 5.0 | 10.0 | 0.00 | 0.00 | 0.00 | 39 | 1009.8 |
| 20260503231539 | 85 | 72 | 2.0 | 10.0 | 0.00 | 0.00 | 0.00 | 41 | 1009.8 |
| 20260503231025 | 85 | 61 | 4.0 | 10.0 | 0.00 | 0.00 | 0.00 | 39 | 1009.9 |
| 20260503230526 | 84 | 49 | 2.0 | 12.0 | 0.00 | 0.00 | 0.00 | 43 | 1010.0 |
| 20260503230041 | 84 | 336 | 5.0 | 12.0 | 0.00 | 0.00 | 0.00 | 40 | 1010.0 |
| 20260503225525 | 83 | 322 | 5.0 | 14.0 | 0.00 | 0.00 | 0.00 | 41 | 1010.1 |
| 20260503225025 | 83 | 335 | 8.0 | 14.0 | 0.00 | 0.00 | 0.00 | 41 | 1010.2 |
| 20260503224535 | 83 | 321 | 6.0 | 14.0 | 0.00 | 0.00 | 0.00 | 40 | 1010.2 |
| 20260503224025 | 83 | 346 | 7.0 | 14.0 | 0.00 | 0.00 | 0.00 | 41 | 1010.3 |
| 20260503223528 | 83 | 335 | 7.0 | 12.0 | 0.00 | 0.00 | 0.00 | 41 | 1010.4 |
| 20260503223044 | 83 | 294 | 7.0 | 12.0 | 0.00 | 0.00 | 0.00 | 42 | 1010.6 |
| 20260503222526 | 83 | 326 | 7.0 | 11.0 | 0.00 | 0.00 | 0.00 | 42 | 1010.7 |
| 20260503222025 | 83 | 346 | 4.0 | 12.0 | 0.00 | 0.00 | 0.00 | 44 | 1010.8 |
| 20260503221551 | 82 | 338 | 7.0 | 13.0 | 0.00 | 0.00 | 0.00 | 41 | 1010.8 |
| 20260503221026 | 82 | 13 | 7.0 | 13.0 | 0.00 | 0.00 | 0.00 | 45 | 1010.9 |
| 20260503220528 | 83 | 336 | 4.0 | 10.0 | 0.00 | 0.00 | 0.00 | 42 | 1010.9 |
| 20260503220043 | 82 | 24 | 5.0 | 10.0 | 0.00 | 0.00 | 0.00 | 46 | 1011.0 |
| 20260503215526 | 82 | 55 | 4.0 | 13.0 | 0.00 | 0.00 | 0.00 | 45 | 1011.1 |
| 20260503215025 | 82 | 19 | 5.0 | 14.0 | 0.00 | 0.00 | 0.00 | 44 | 1011.2 |
| 20260503214540 | 82 | 327 | 6.0 | 14.0 | 0.00 | 0.00 | 0.00 | 44 | 1011.3 |
| 20260503214025 | 82 | 316 | 3.0 | 10.0 | 0.00 | 0.00 | 0.00 | 44 | 1011.3 |
| 20260503213525 | 82 | 121 | 2.0 | 13.0 | 0.00 | 0.00 | 0.00 | 47 | 1011.4 |
| 20260503213040 | 81 | 343 | 5.0 | 13.0 | 0.00 | 0.00 | 0.00 | 46 | 1011.4 |
| 20260503212525 | 81 | 29 | 6.0 | 13.0 | 0.00 | 0.00 | 0.00 | 43 | 1011.5 |
| 20260503212026 | 81 | 14 | 6.0 | 16.0 | 0.00 | 0.00 | 0.00 | 46 | 1011.5 |
| 20260503211539 | 81 | 34 | 6.0 | 16.0 | 0.00 | 0.00 | 0.00 | 44 | 1011.5 |